This is the latest recevied weather packets stored in our database for station/object K9TLD. If no packets are shown the sender has not sent any weather packets the latest 1 day(s).
| Time | Temp. | Humidity | Pressure | Rain* | Wind** | Luminosity | Snow |
|---|---|---|---|---|---|---|---|
| 1778008929 | 15° C | 35% | 1009.2 hPa | 0 mm | 0.89 m/s, 254° | 657 W/m² | - |
| 1778008628 | 15° C | 35% | 1009.3 hPa | 0 mm | 1.34 m/s, 51° | 651 W/m² | - |
| 1778008325 | 15° C | 36% | 1009.3 hPa | 0 mm | 1.79 m/s, 236° | 725 W/m² | - |
| 1778008021 | 15° C | 34% | 1009.2 hPa | 0 mm | 0.45 m/s, 241° | 656 W/m² | - |
| 1778007715 | 14.44° C | 34% | 1009.2 hPa | 0 mm | 1.34 m/s, 276° | 676 W/m² | - |
| 1778007413 | 14.44° C | 34% | 1009.2 hPa | 0 mm | 1.79 m/s, 250° | 701 W/m² | - |
| 1778007109 | 15° C | 33% | 1009.2 hPa | 0 mm | 2.24 m/s, 267° | 637 W/m² | - |
| 1778006805 | 14.44° C | 34% | 1009.1 hPa | 0 mm | 1.34 m/s, 251° | 698 W/m² | - |
| 1778006502 | 15° C | 32% | 1009.2 hPa | 0 mm | 2.24 m/s, 252° | 729 W/m² | - |
| 1778006200 | 15° C | 34% | 1009 hPa | 0 mm | 0.89 m/s, 258° | 756 W/m² | - |
| 1778005897 | 14.44° C | 35% | 1009 hPa | 0 mm | 1.34 m/s, 278° | 756 W/m² | - |
| 1778005593 | 14.44° C | 36% | 1009 hPa | 0 mm | 0.89 m/s, 158° | 742 W/m² | - |
| 1778005290 | 15° C | 34% | 1008.8 hPa | 0 mm | 2.24 m/s, 323° | 697 W/m² | - |
| 1778004987 | 14.44° C | 38% | 1008.9 hPa | 0 mm | 1.34 m/s, 337° | 747 W/m² | - |
| 1778004684 | 14.44° C | 40% | 1009 hPa | 0 mm | 1.34 m/s, 257° | 752 W/m² | - |
| 1778004380 | 14.44° C | 36% | 1009.1 hPa | 0 mm | 1.34 m/s, 292° | 740 W/m² | - |
| 1778004078 | 13.89° C | 36% | 1009 hPa | 0 mm | 3.58 m/s, 254° | 764 W/m² | - |
| 1778003773 | 14.44° C | 38% | 1009.1 hPa | 0 mm | 0.45 m/s, 245° | 479 W/m² | - |
| 1778003470 | 14.44° C | 39% | 1009 hPa | 0 mm | 0.89 m/s, 223° | 661 W/m² | - |
| 1778003166 | 14.44° C | 39% | 1009.1 hPa | 0 mm | 0.89 m/s, 250° | 684 W/m² | - |
| 1778002862 | 13.89° C | 40% | 1009.2 hPa | 0 mm | 0.89 m/s, 221° | 742 W/m² | - |
| 1778002554 | 13.89° C | 39% | 1009.1 hPa | 0 mm | 1.79 m/s, 262° | 639 W/m² | - |
| 1778002251 | 13.89° C | 39% | 1008.9 hPa | 0 mm | 2.24 m/s, 220° | 622 W/m² | - |
| 1778001948 | 13.89° C | 38% | 1008.9 hPa | 0 mm | 1.34 m/s, 252° | 608 W/m² | - |
| 1778001645 | 13.89° C | 40% | 1008.8 hPa | 0 mm | 0.45 m/s, 208° | 642 W/m² | - |
* Rain latest hour (hover to see other rain measurements)
** Current wind speed in m/s (hover to see current wind gust speed)